Ft Riley, KS

10:56 AM CDT on September 25, 2017 (GMT -0500)
Marshall Army Air Field

Weather History for KFRI - June, 2013

Change the Weather History Date:

Saturday, June 29, 2013

  Actual Average (KMHK) Record (KMHK)
Temperature  
Mean Temperature 74 °F -  
Max Temperature 85 °F 87 °F 102 °F (2012)
Min Temperature 63 °F 63 °F 51 °F (2000)
Cooling Degree Days 9    
Growing Degree Days 24 (Base 50)    
Moisture  
Dew Point 56 °F    
Average Humidity 57    
Maximum Humidity 91    
Minimum Humidity 29    
Precipitation  
Precipitation 0.00 in - - ()
Sea Level Pressure  
Sea Level Pressure 29.92 in    
Wind  
Wind Speed 8 mph (NW)    
Max Wind Speed 21 mph    
Max Gust Speed 29 mph    
Visibility 10 miles    
Events      
Averages and records for this station are not official NWS values.
T = Trace of Precipitation, MM = Missing Value Source: NWS Daily Summary

Daily Weather History Graph

Daily Weather History Graph

Search for Another Location

Airport or City:

Trip Planner

Search our weather history database for the weather conditions in past years. The results will help you decide how hot, cold, wet, or windy it might be!

Date:

Astronomy

Jun. 29, 2013 Rise Set
Actual Time 6:04 AM CDT 8:56 PM CDT
Civil Twilight 5:32 AM CDT 9:28 PM CDT
Nautical Twilight 4:51 AM CDT 10:09 PM CDT
Astronomical Twilight 4:05 AM CDT 10:55 PM CDT
Moon 12:29 AM CDT (6/29) 1:13 PM CDT (6/29)
Length of Visible Light 15h 56m
Length of Day
14h 52m
Waning Gibbous, 55% of the Moon is Illuminated
Jun 29
Waning Gibbous
Jun 29
Last Quarter
Jul 8
New
Jul 15
First Quarter
Jul 22
Full

Hourly Weather History & Observations

Time (CDT) Temp. Heat Index Dew Point Humidity Pressure Visibility Wind Dir Wind Speed Gust Speed Precip Events Conditions
12:58 AM 66.6 °F - 61.0 °F 82% 29.91 in 10.0 mi SW 2.3 mph - N/A   Clear
1:58 AM 66.0 °F - 60.6 °F 83% 29.92 in 10.0 mi South 4.6 mph - N/A   Clear
2:58 AM 65.3 °F - 59.7 °F 82% 29.93 in 10.0 mi SW 4.6 mph - N/A   Clear
3:58 AM 64.0 °F - 59.7 °F 86% 29.93 in 10.0 mi SW 5.8 mph - N/A   Clear
4:58 AM 64.6 °F - 59.5 °F 84% 29.93 in 10.0 mi SSW 5.8 mph - N/A   Clear
5:58 AM 63.5 °F - 60.8 °F 91% 29.93 in 10.0 mi SSW 6.9 mph - N/A   Clear
6:58 AM 64.4 °F - 61.0 °F 89% 29.94 in 10.0 mi SSW 6.9 mph - N/A   Clear
7:58 AM 70.5 °F - 59.4 °F 68% 29.94 in 10.0 mi WNW 6.9 mph - N/A   Clear
8:58 AM 75.6 °F - 56.8 °F 52% 29.95 in 10.0 mi NNW 8.1 mph - N/A   Clear
9:58 AM 78.4 °F - 57.9 °F 49% 29.95 in 10.0 mi NW 10.4 mph - N/A   Clear
10:58 AM 81.5 °F 81.3 °F 56.5 °F 42% 29.94 in 10.0 mi North 12.7 mph 18.4 mph N/A   Clear
11:58 AM 82.8 °F 81.7 °F 54.1 °F 37% 29.93 in 10.0 mi NNW 13.8 mph 23.0 mph N/A   Clear
1:58 PM 84.2 °F - 52.3 °F 33% 29.90 in 10.0 mi NNW 16.1 mph 27.6 mph N/A   Partly Cloudy
2:58 PM 85.3 °F - 52.5 °F 32% 29.90 in 10.0 mi North 17.3 mph 26.5 mph N/A   Partly Cloudy
3:58 PM 84.7 °F - 50.2 °F 30% 29.89 in 10.0 mi North 20.7 mph 28.8 mph N/A   Clear
4:58 PM 84.9 °F - 49.1 °F 29% 29.88 in 10.0 mi NNW 16.1 mph 25.3 mph N/A   Clear
5:58 PM 83.8 °F - 52.0 °F 33% 29.87 in 10.0 mi North 16.1 mph 23.0 mph N/A   Clear
6:58 PM 82.4 °F - 52.7 °F 36% 29.87 in 10.0 mi North 15.0 mph 24.2 mph N/A   Clear
7:58 PM 80.2 °F - 52.7 °F 38% 29.88 in 10.0 mi North 12.7 mph 23.0 mph N/A   Clear
8:58 PM 76.5 °F - 55.4 °F 48% 29.89 in 10.0 mi North 10.4 mph - N/A   Clear
9:58 PM 72.9 °F - 56.1 °F 56% 29.91 in 10.0 mi North 5.8 mph - N/A   Clear
10:58 PM 70.3 °F - 57.7 °F 64% 29.93 in 10.0 mi North 8.1 mph - N/A   Clear
11:58 PM 68.0 °F - 57.2 °F 68% 29.94 in 10.0 mi North 2.3 mph - N/A   Clear